DW5735 Weather Reports


Display with metric or nautical units.
time (UTC)temp
F
wind
direction
speed
MPH
gust
MPH
rain 1hr
in
rain 24hr
in
rain mn
in
humidity
%
barometer
mb
20260905200021 63 34 0.0 0.0 0.00 0.00 0.00 64 1017.8
20260905195843 64 110 0.0 0.0 0.00 0.00 0.00 65 1018.3
20260905195317 63 155 0.0 0.0 0.00 0.00 0.00 67 1018.2
20260905194836 63 226 0.0 0.0 0.00 0.00 0.00 67 1018.4
20260905194502 63 256 0.0 0.0 0.00 0.00 0.00 69 1017.9
20260905194322 63 262 0.0 0.0 0.00 0.00 0.00 68 1018.4
20260905193824 63 276 0.0 0.0 0.00 0.00 0.00 68 1018.4
20260905193321 63 282 0.0 0.0 0.00 0.00 0.00 65 1018.5
20260905193156 63 283 0.0 0.0 0.00 0.00 0.00 65 1018.1
20260905192835 63 306 0.0 0.0 0.00 0.00 0.00 64 1018.5
20260905192316 63 193 0.0 0.0 0.00 0.00 0.00 65 1018.6
20260905191626 63 221 0.0 0.0 0.00 0.00 0.00 65 1018.4
20260905191342 63 271 0.0 0.0 0.00 0.00 0.00 68 1018.7
20260905190825 62 226 0.0 0.0 0.00 0.00 0.00 70 1018.8
20260905190340 62 246 0.0 0.0 0.00 0.00 0.00 68 1018.9
20260905190105 61 263 0.0 0.0 0.00 0.00 0.00 67 1018.6
20260905185848 62 293 0.0 0.0 0.00 0.00 0.00 67 1018.9
20260905185339 62 280 0.0 0.0 0.00 0.00 0.00 68 1019.0
20260905184819 61 288 0.0 0.0 0.00 0.00 0.00 68 1019.0
20260905184602 60 281 0.0 0.0 0.00 0.00 0.00 69 1018.8
20260905184321 61 255 0.0 3.0 0.00 0.00 0.00 70 1019.1
20260905183828 61 294 0.0 3.0 0.00 0.00 0.00 69 1019.3
20260905183348 60 339 0.0 2.0 0.00 0.00 0.00 69 1019.3
20260905183106 60 11 0.0 0.0 0.00 0.00 0.00 70 1019.0
20260905182821 60 356 0.0 0.0 0.00 0.00 0.00 72 1019.4
20260905182330 60 255 0.0 0.0 0.00 0.00 0.00 71 1019.5
20260905181832 60 264 0.0 0.0 0.00 0.00 0.00 71 1019.6
20260905181613 59 291 0.0 0.0 0.00 0.00 0.00 72 1019.2
20260905181332 60 283 0.0 5.0 0.00 0.00 0.00 74 1019.6
20260905180825 60 295 0.0 5.0 0.00 0.00 0.00 73 1019.7
20260905180355 60 293 0.0 0.0 0.00 0.00 0.00 74 1019.7
20260905175832 60 284 0.0 1.0 0.00 0.00 0.00 73 1019.7
20260905174848 60 43 0.0 1.0 0.00 0.00 0.00 71 1019.8
20260905174606 59 73 0.0 1.0 0.00 0.00 0.00 72 1019.4
20260905174333 60 25 0.0 1.0 0.00 0.00 0.00 73 1019.8
20260905173900 59 98 0.0 0.0 0.00 0.00 0.00 76 1019.9
20260905173348 59 51 0.0 0.0 0.00 0.00 0.00 76 1020.1
20260905173103 58 75 0.0 0.0 0.00 0.00 0.00 76 1019.7
20260905172818 58 74 0.0 0.0 0.00 0.00 0.00 76 1020.1
20260905172331 58 61 0.0 1.0 0.00 0.00 0.00 77 1019.9
20260905171816 58 56 0.0 0.0 0.00 0.00 0.00 78 1020.0
20260905171344 58 56 0.0 0.0 0.00 0.00 0.00 79 1020.2
20260905170819 57 23 0.0 0.0 0.00 0.00 0.00 81 1020.1
20260905170346 57 34 0.0 0.0 0.00 0.00 0.00 81 1020.1
20260905170114 56 34 0.0 0.0 0.00 0.00 0.00 80 1019.8
20260905165820 57 43 0.0 0.0 0.00 0.00 0.00 81 1020.2
20260905165329 57 25 0.0 0.0 0.00 0.00 0.00 81 1020.1
20260905164819 56 73 0.0 0.0 0.00 0.00 0.00 82 1020.1
20260905164603 56 56 0.0 0.0 0.00 0.00 0.00 82 1019.8
20260905164323 56 41 0.0 0.0 0.00 0.00 0.00 83 1020.1
20260905163834 56 50 0.0 6.0 0.00 0.00 0.00 83 1020.1
20260905163348 56 36 4.0 6.0 0.00 0.00 0.00 83 1020.1
20260905163108 56 20 3.0 6.0 0.00 0.00 0.00 83 1019.7
20260905162829 56 37 4.0 6.0 0.00 0.00 0.00 83 1020.1
20260905162355 56 48 0.0 6.0 0.00 0.00 0.00 81 1020.1
20260905161825 56 46 0.0 0.0 0.00 0.00 0.00 82 1020.1
20260905161607 55 63 0.0 0.0 0.00 0.00 0.00 82 1019.7
20260905161353 56 27 0.0 0.0 0.00 0.00 0.00 81 1020.1
20260905160818 56 64 0.0 0.0 0.00 0.00 0.00 80 1020.1
20260905160340 55 101 0.0 0.0 0.00 0.00 0.00 81 1020.1
20260905160012 55 43 0.0 0.0 0.00 0.00 0.00 81 1019.7
20260905155830 55 49 0.0 0.0 0.00 0.00 0.00 81 1020.0
20260905155336 55 44 0.0 0.0 0.00 0.00 0.00 81 1020.1
20260905154832 55 48 0.0 0.0 0.00 0.00 0.00 83 1020.1
20260905154501 54 90 0.0 0.0 0.00 0.00 0.00 83 1019.8
20260905154326 55 63 0.0 0.0 0.00 0.00 0.00 84 1020.1
20260905153829 55 77 0.0 0.0 0.00 0.00 0.00 83 1020.1
20260905153350 55 43 0.0 0.0 0.00 0.00 0.00 83 1020.1
20260905153125 54 79 0.0 0.0 0.00 0.00 0.00 84 1019.8
20260905152829 55 79 0.0 0.0 0.00 0.00 0.00 84 1020.2
20260905152327 55 72 0.0 0.0 0.00 0.00 0.00 84 1020.1
20260905151824 54 86 0.0 0.0 0.00 0.00 0.00 86 1020.1
20260905151607 54 80 0.0 0.0 0.00 0.00 0.00 86 1019.7
20260905151339 54 62 0.0 0.0 0.00 0.00 0.00 86 1020.1
20260905150827 54 39 0.0 0.0 0.00 0.00 0.00 85 1020.1
20260905150334 54 49 0.0 0.0 0.00 0.00 0.00 86 1020.1
20260905145847 54 36 0.0 0.0 0.00 0.00 0.00 87 1020.1
20260905145348 53 74 0.0 0.0 0.00 0.00 0.00 87 1020.1
20260905144842 53 65 0.0 0.0 0.00 0.00 0.00 87 1020.0
20260905144553 53 70 0.0 0.0 0.00 0.00 0.00 87 1019.7
20260905144330 53 70 0.0 0.0 0.00 0.00 0.00 87 1020.0
20260905143820 53 70 0.0 0.0 0.00 0.00 0.00 88 1020.1
20260905143323 53 105 0.0 0.0 0.00 0.00 0.00 87 1020.1
20260905143055 52 97 0.0 0.0 0.00 0.00 0.00 87 1019.8
20260905142834 53 91 0.0 0.0 0.00 0.00 0.00 87 1020.0
20260905142330 53 97 0.0 0.0 0.00 0.00 0.00 88 1020.0
20260905141827 53 75 0.0 0.0 0.00 0.00 0.00 88 1020.0
20260905141516 52 86 0.0 0.0 0.00 0.00 0.00 88 1019.6
20260905141341 53 89 0.0 0.0 0.00 0.00 0.00 88 1020.0
20260905140816 52 59 0.0 0.0 0.00 0.00 0.00 88 1020.1
20260905140340 52 94 0.0 0.0 0.00 0.00 0.00 87 1020.1
20260905140055 52 98 0.0 0.0 0.00 0.00 0.00 87 1019.7
20260905135833 52 98 0.0 0.0 0.00 0.00 0.00 87 1020.1
20260905135352 53 58 0.0 0.0 0.00 0.00 0.00 87 1020.1
20260905134857 53 68 0.0 0.0 0.00 0.00 0.00 87 1020.0
20260905134622 52 68 0.0 0.0 0.00 0.00 0.00 88 1019.7
20260905134335 53 56 0.0 0.0 0.00 0.00 0.00 88 1019.9
20260905133827 53 36 0.0 0.0 0.00 0.00 0.00 87 1019.9
20260905133329 53 65 0.0 0.0 0.00 0.00 0.00 87 1019.8
20260905133056 52 86 0.0 0.0 0.00 0.00 0.00 87 1019.5
20260905132827 53 85 0.0 0.0 0.00 0.00 0.00 88 1019.8
20260905132336 52 103 0.0 0.0 0.00 0.00 0.00 88 1019.7
20260905131832 52 90 0.0 0.0 0.00 0.00 0.00 88 1019.7
20260905131607 51 87 0.0 0.0 0.00 0.00 0.00 88 1019.4
20260905131335 52 109 0.0 0.0 0.00 0.00 0.00 88 1019.7
20260905130822 52 51 0.0 0.0 0.00 0.00 0.00 88 1019.7
20260905130323 52 84 0.0 0.0 0.00 0.00 0.00 88 1019.6
20260905125905 52 82 0.0 0.0 0.00 0.00 0.00 88 1019.7
20260905125318 52 90 0.0 0.0 0.00 0.00 0.00 88 1019.7
20260905124820 52 77 0.0 0.0 0.00 0.00 0.00 88 1019.7
20260905124325 52 76 0.0 0.0 0.00 0.00 0.00 88 1019.6
20260905123819 52 52 0.0 0.0 0.00 0.00 0.00 88 1019.6
20260905123345 52 78 0.0 0.0 0.00 0.00 0.00 88 1019.5
20260905123114 51 79 0.0 0.0 0.00 0.00 0.00 88 1019.2
20260905122904 52 78 0.0 0.0 0.00 0.00 0.00 88 1019.5
20260905122336 52 98 0.0 0.0 0.00 0.00 0.00 89 1019.4
20260905121838 52 75 0.0 0.0 0.00 0.00 0.00 88 1019.4
20260905121604 51 70 0.0 0.0 0.00 0.00 0.00 88 1019.1
20260905121326 51 94 0.0 0.0 0.00 0.00 0.00 89 1019.4
20260905120845 51 87 0.0 0.0 0.00 0.00 0.00 89 1019.4
20260905120318 51 102 0.0 0.0 0.00 0.00 0.00 88 1019.4
20260905120117 51 104 0.0 0.0 0.00 0.00 0.00 88 1019.1
20260905115848 52 99 0.0 0.0 0.00 0.00 0.00 89 1019.3
20260905115342 52 103 0.0 0.0 0.00 0.00 0.00 88 1019.3
20260905114830 52 91 0.0 0.0 0.00 0.00 0.00 88 1019.2
20260905114601 51 78 0.0 0.0 0.00 0.00 0.00 88 1019.0
20260905114338 52 41 0.0 0.0 0.00 0.00 0.00 88 1019.3
20260905113851 52 54 0.0 0.0 0.00 0.00 0.00 88 1019.3
20260905113342 53 27 0.0 0.0 0.00 0.00 0.00 89 1019.2
20260905113101 52 32 0.0 0.0 0.00 0.00 0.00 89 1018.9
20260905112858 52 39 0.0 0.0 0.00 0.00 0.00 88 1019.2
20260905112329 52 34 0.0 0.0 0.00 0.00 0.00 88 1019.1
20260905111839 52 42 0.0 0.0 0.00 0.00 0.00 89 1019.1
20260905111613 52 43 0.0 0.0 0.00 0.00 0.00 89 1018.8
20260905111318 52 56 0.0 0.0 0.00 0.00 0.00 89 1019.0
20260905110859 52 81 0.0 0.0 0.00 0.00 0.00 89 1019.0
20260905110337 52 93 0.0 0.0 0.00 0.00 0.00 89 1018.9
20260905110059 51 91 0.0 0.0 0.00 0.00 0.00 89 1018.7
20260905105837 52 95 0.0 0.0 0.00 0.00 0.00 89 1018.9
20260905105337 51 94 0.0 0.0 0.00 0.00 0.00 90 1018.8
20260905104819 51 95 0.0 0.0 0.00 0.00 0.00 90 1018.8
20260905104553 51 101 0.0 0.0 0.00 0.00 0.00 90 1018.5
20260905104331 51 84 0.0 0.0 0.00 0.00 0.00 90 1018.8
20260905103845 51 93 0.0 0.0 0.00 0.00 0.00 90 1018.8
20260905103333 51 91 0.0 0.0 0.00 0.00 0.00 90 1018.8
20260905102839 51 94 0.0 0.0 0.00 0.00 0.00 90 1018.8
20260905102323 51 79 0.0 0.0 0.00 0.00 0.00 89 1018.8
20260905101817 51 89 0.0 0.0 0.00 0.00 0.00 89 1018.8
20260905101616 51 89 0.0 0.0 0.00 0.00 0.00 89 1018.5
20260905101323 51 87 0.0 0.0 0.00 0.00 0.00 89 1018.8
20260905100818 52 88 0.0 0.0 0.00 0.00 0.00 89 1018.8
20260905100336 52 88 0.0 0.0 0.00 0.00 0.00 89 1018.8
20260905100142 52 87 0.0 0.0 0.00 0.00 0.00 89 1018.5
20260905095819 52 101 0.0 0.0 0.00 0.00 0.00 89 1018.8
20260905095331 52 94 0.0 0.0 0.00 0.00 0.00 89 1018.8
20260905094823 52 96 0.0 0.0 0.00 0.00 0.00 89 1018.8
20260905094614 52 99 0.0 0.0 0.00 0.00 0.00 89 1018.5
20260905094317 52 94 0.0 0.0 0.00 0.00 0.00 89 1018.8
20260905093823 52 67 0.0 0.0 0.00 0.00 0.00 89 1018.8
20260905093318 53 77 0.0 0.0 0.00 0.00 0.00 89 1018.8
20260905093107 52 76 0.0 0.0 0.00 0.00 0.00 89 1018.6
20260905092828 53 50 0.0 0.0 0.00 0.00 0.00 89 1018.8
20260905092344 52 37 0.0 0.0 0.00 0.00 0.00 88 1018.8
20260905091833 53 43 0.0 0.0 0.00 0.00 0.00 88 1018.8
20260905091520 52 87 0.0 0.0 0.00 0.00 0.00 88 1018.5
20260905091333 53 67 0.0 0.0 0.00 0.00 0.00 88 1018.8
20260905090826 53 86 0.0 0.0 0.00 0.00 0.00 87 1018.7
20260905090346 53 76 0.0 0.0 0.00 0.00 0.00 87 1018.7
20260905090121 53 94 0.0 0.0 0.00 0.00 0.00 87 1018.5
20260905085819 53 93 0.0 0.0 0.00 0.00 0.00 87 1018.8
20260905085345 53 60 0.0 0.0 0.00 0.00 0.00 87 1018.8
20260905084904 53 48 0.0 0.0 0.00 0.00 0.00 87 1018.7
20260905084634 53 51 0.0 0.0 0.00 0.00 0.00 87 1018.4
20260905084353 54 65 0.0 0.0 0.00 0.00 0.00 87 1018.6
20260905083829 54 83 0.0 0.0 0.00 0.00 0.00 87 1018.6
20260905083343 53 34 0.0 0.0 0.00 0.00 0.00 87 1018.6
20260905083039 53 60 0.0 0.0 0.00 0.00 0.00 87 1018.3
20260905082819 53 60 0.0 0.0 0.00 0.00 0.00 86 1018.5
20260905082340 54 72 0.0 0.0 0.00 0.00 0.00 87 1018.5
20260905081824 54 62 0.0 0.0 0.00 0.00 0.00 86 1018.5
20260905081617 53 64 0.0 0.0 0.00 0.00 0.00 86 1018.1
20260905080845 54 96 0.0 0.0 0.00 0.00 0.00 86 1018.5
20260905080333 54 98 0.0 0.0 0.00 0.00 0.00 86 1018.4
20260905080104 54 98 0.0 0.0 0.00 0.00 0.00 85 1018.0
20260905075827 55 79 0.0 0.0 0.00 0.00 0.00 85 1018.4
20260905075320 55 94 0.0 0.0 0.00 0.00 0.00 85 1018.3
20260905074821 55 79 0.0 0.0 0.00 0.00 0.00 84 1018.4
20260905074607 55 78 0.0 0.0 0.00 0.00 0.00 84 1017.9
20260905074331 55 50 0.0 0.0 0.00 0.00 0.00 84 1018.3
20260905073825 55 60 0.0 0.0 0.00 0.00 0.00 84 1018.3
20260905073340 56 28 0.0 0.0 0.00 0.00 0.00 83 1018.3
20260905073104 55 46 0.0 0.0 0.00 0.00 0.00 83 1018.1
20260905072856 56 90 0.0 0.0 0.00 0.00 0.00 82 1018.3
20260905072317 56 84 0.0 0.0 0.00 0.00 0.00 82 1018.2
20260905071839 56 88 0.0 0.0 0.00 0.00 0.00 82 1018.2
20260905071607 56 101 0.0 0.0 0.00 0.00 0.00 81 1017.8
20260905071324 56 38 0.0 0.0 0.00 0.00 0.00 82 1018.1
20260905070849 57 66 0.0 0.0 0.00 0.00 0.00 83 1018.1
20260905070328 57 27 0.0 0.0 0.00 0.00 0.00 82 1018.1
20260905070121 56 56 0.0 0.0 0.00 0.00 0.00 83 1017.8
20260905065818 56 28 0.0 0.0 0.00 0.00 0.00 82 1018.1
20260905065355 57 44 0.0 0.0 0.00 0.00 0.00 82 1018.0
20260905064826 57 37 0.0 0.0 0.00 0.00 0.00 82 1018.0
20260905064603 56 73 0.0 0.0 0.00 0.00 0.00 81 1017.7
20260905064320 57 13 0.0 0.0 0.00 0.00 0.00 81 1018.0
20260905063826 57 68 0.0 0.0 0.00 0.00 0.00 81 1017.9
20260905063346 57 75 0.0 0.0 0.00 0.00 0.00 81 1017.9
20260905063101 56 91 0.0 0.0 0.00 0.00 0.00 80 1017.6
20260905062330 57 50 0.0 0.0 0.00 0.00 0.00 80 1017.8
20260905061859 57 68 0.0 0.0 0.00 0.00 0.00 80 1017.8
20260905061623 56 75 0.0 0.0 0.00 0.00 0.00 80 1017.6
20260905061341 57 75 0.0 0.0 0.00 0.00 0.00 80 1017.8
20260905060826 57 101 0.0 0.0 0.00 0.00 0.00 79 1017.8
20260905060338 57 94 0.0 0.0 0.00 0.00 0.00 79 1017.8
20260905055839 57 109 0.0 1.0 0.00 0.00 0.00 79 1017.8
20260905055326 57 87 0.0 1.0 0.00 0.00 0.00 79 1017.8
20260905054830 57 85 0.0 0.0 0.00 0.00 0.00 79 1017.8
20260905054553 57 104 0.0 0.0 0.00 0.00 0.00 80 1017.5
20260905054330 57 82 0.0 0.0 0.00 0.00 0.00 79 1017.8
20260905053855 57 34 0.0 0.0 0.00 0.00 0.00 79 1017.8
20260905053334 57 108 0.0 0.0 0.00 0.00 0.00 79 1017.8
20260905053127 57 94 0.0 0.0 0.00 0.00 0.00 79 1017.6
20260905052834 57 74 0.0 0.0 0.00 0.00 0.00 79 1017.8
20260905052337 57 57 0.0 0.0 0.00 0.00 0.00 79 1017.7
20260905051900 57 98 0.0 0.0 0.00 0.00 0.00 79 1017.7
20260905051514 57 98 0.0 0.0 0.00 0.00 0.00 79 1017.3
20260905051337 57 73 0.0 1.0 0.00 0.00 0.00 79 1017.7
20260905050820 57 86 0.0 1.0 0.00 0.00 0.00 79 1017.7
20260905050337 57 85 0.0 0.0 0.00 0.00 0.00 79 1017.6
20260905045830 57 105 0.0 0.0 0.00 0.00 0.00 78 1017.6
20260905045341 57 83 0.0 0.0 0.00 0.00 0.00 78 1017.6
20260905044826 57 71 0.0 0.0 0.00 0.00 0.00 78 1017.6
20260905044502 57 65 0.0 0.0 0.00 0.00 0.00 78 1017.3
20260905044325 57 71 0.0 0.0 0.00 0.00 0.00 78 1017.6
20260905043837 58 89 0.0 0.0 0.00 0.00 0.00 78 1017.6
20260905043322 58 101 0.0 0.0 0.00 0.00 0.00 78 1017.6
20260905043104 57 78 0.0 0.0 0.00 0.00 0.00 78 1017.3
20260905042819 58 42 0.0 0.0 0.00 0.00 0.00 78 1017.7
20260905042319 58 37 0.0 0.0 0.00 0.00 0.00 76 1017.6
20260905041844 58 130 0.0 1.0 0.00 0.00 0.00 76 1017.5
20260905041602 58 98 0.0 1.0 0.00 0.00 0.00 76 1017.1
20260905041336 58 89 0.0 1.0 0.00 0.00 0.00 75 1017.4
20260905040827 58 92 0.0 1.0 0.00 0.00 0.00 75 1017.3
20260905040328 58 91 0.0 1.0 0.00 0.00 0.00 75 1017.3
20260905035836 59 95 0.0 0.0 0.00 0.00 0.00 75 1017.1
20260905035316 59 100 0.0 4.0 0.00 0.00 0.00 75 1017.1
20260905034827 59 103 1.0 4.0 0.00 0.00 0.00 75 1017.2
20260905034613 58 87 0.0 5.0 0.00 0.00 0.00 75 1016.9
20260905034330 59 91 0.0 3.0 0.00 0.00 0.00 74 1017.1
20260905033827 59 113 0.0 3.0 0.00 0.00 0.00 74 1017.0
20260905033359 59 72 0.0 0.0 0.00 0.00 0.00 74 1017.0
20260905033052 59 34 0.0 4.0 0.00 0.00 0.00 73 1016.7
20260905032826 59 76 0.0 5.0 0.00 0.00 0.00 73 1017.0
20260905032323 59 72 1.0 5.0 0.00 0.00 0.00 73 1017.0
20260905031821 59 65 0.0 0.0 0.00 0.00 0.00 73 1016.8
20260905031621 59 74 0.0 0.0 0.00 0.00 0.00 73 1016.5
20260905031342 59 75 0.0 0.0 0.00 0.00 0.00 73 1016.8
20260905030840 59 56 0.0 0.0 0.00 0.00 0.00 73 1016.7
20260905030326 59 107 0.0 0.0 0.00 0.00 0.00 73 1016.7
20260905030054 59 101 0.0 0.0 0.00 0.00 0.00 72 1016.3
20260905025853 60 98 0.0 0.0 0.00 0.00 0.00 72 1016.7
20260905025319 60 108 0.0 0.0 0.00 0.00 0.00 72 1016.6
20260905024858 60 103 0.0 5.0 0.00 0.00 0.00 72 1016.6
20260905024332 60 107 1.0 5.0 0.00 0.00 0.00 72 1016.7
20260905023825 60 113 2.0 5.0 0.00 0.00 0.00 72 1016.7
20260905023336 60 102 3.0 5.0 0.00 0.00 0.00 71 1016.6
20260905023105 59 115 2.0 5.0 0.00 0.00 0.00 71 1016.3
20260905022821 60 108 1.0 5.0 0.00 0.00 0.00 71 1016.7
20260905022327 60 98 1.0 6.0 0.00 0.00 0.00 71 1016.5
20260905021819 60 110 2.0 6.0 0.00 0.00 0.00 71 1016.4
20260905021602 60 99 0.0 6.0 0.00 0.00 0.00 71 1016.0
20260905021319 60 113 1.0 5.0 0.00 0.00 0.00 71 1016.5
20260905020822 61 105 1.0 4.0 0.00 0.00 0.00 71 1016.4
20260905020345 61 121 1.0 4.0 0.00 0.00 0.00 71 1016.4
20260905020110 60 98 1.0 4.0 0.00 0.00 0.00 71 1015.9
20260905015826 61 89 0.0 0.0 0.00 0.00 0.00 71 1016.4
20260905015318 61 60 0.0 5.0 0.00 0.00 0.00 71 1016.3
20260905014819 61 113 1.0 5.0 0.00 0.00 0.00 70 1016.2
20260905014553 61 104 1.0 5.0 0.00 0.00 0.00 70 1015.8
20260905014349 61 87 0.0 4.0 0.00 0.00 0.00 70 1016.2
20260905013827 61 64 0.0 5.0 0.00 0.00 0.00 70 1016.2
20260905013332 62 82 1.0 5.0 0.00 0.00 0.00 70 1016.1
20260905013001 61 111 1.0 5.0 0.00 0.00 0.00 71 1015.6
20260905012823 62 76 1.0 6.0 0.00 0.00 0.00 71 1016.0
20260905012333 62 111 1.0 6.0 0.00 0.00 0.00 70 1015.9
20260905011819 62 84 0.0 5.0 0.00 0.00 0.00 70 1015.9
20260905011616 61 123 0.0 5.0 0.00 0.00 0.00 70 1015.5
20260905011325 62 105 1.0 4.0 0.00 0.00 0.00 70 1015.9
20260905010838 62 104 0.0 5.0 0.00 0.00 0.00 69 1015.6
20260905010319 62 116 1.0 5.0 0.00 0.00 0.00 69 1015.6
20260905010108 62 107 0.0 0.0 0.00 0.00 0.00 69 1015.1
20260905005913 63 102 0.0 0.0 0.00 0.00 0.00 69 1015.5
20260905005402 63 105 0.0 0.0 0.00 0.00 0.00 69 1015.5
20260905004841 63 87 0.0 0.0 0.00 0.00 0.00 69 1015.5
20260905004557 62 88 0.0 0.0 0.00 0.00 0.00 68 1015.2
20260905004322 63 77 0.0 0.0 0.00 0.00 0.00 68 1015.4
20260905003825 63 114 0.0 0.0 0.00 0.00 0.00 67 1015.4
20260905003328 63 68 0.0 0.0 0.00 0.00 0.00 68 1015.4
20260905002833 63 66 0.0 0.0 0.00 0.00 0.00 67 1015.3
20260905002333 63 64 0.0 0.0 0.00 0.00 0.00 66 1015.1
20260905001845 63 46 0.0 0.0 0.00 0.00 0.00 66 1015.1
20260905001607 63 49 0.0 0.0 0.00 0.00 0.00 65 1014.9
20260905001321 64 66 0.0 0.0 0.00 0.00 0.00 63 1015.1
20260905000830 64 71 0.0 0.0 0.00 0.00 0.00 63 1015.1
20260905000333 64 119 0.0 0.0 0.00 0.00 0.00 62 1015.0
20260905000114 63 103 0.0 0.0 0.00 0.00 0.00 62 1014.5
20260904235818 64 104 0.0 0.0 0.00 0.00 0.00 62 1014.9
20260904235331 64 106 0.0 0.0 0.00 0.00 0.00 62 1014.9
20260904234826 64 52 0.0 0.0 0.00 0.00 0.00 61 1014.8
20260904234517 63 101 0.0 0.0 0.00 0.00 0.00 62 1014.4
20260904233825 63 56 0.0 0.0 0.00 0.00 0.00 63 1014.7
20260904233324 63 56 0.0 1.0 0.00 0.00 0.00 63 1014.7
20260904233121 63 61 0.0 1.0 0.00 0.00 0.00 63 1014.4
20260904232837 63 103 0.0 5.0 0.00 0.00 0.00 62 1014.7
20260904232338 63 96 0.0 8.0 0.00 0.00 0.00 64 1014.7
20260904231824 63 36 3.0 6.0 0.00 0.00 0.00 65 1014.8
20260904231355 63 43 0.0 4.0 0.00 0.00 0.00 64 1014.7
20260904230830 64 89 1.0 6.0 0.00 0.00 0.00 64 1014.7
20260904230330 63 57 0.0 6.0 0.00 0.00 0.00 66 1014.7
20260904230114 63 33 4.0 7.0 0.00 0.00 0.00 65 1014.3
20260904225831 64 40 2.0 7.0 0.00 0.00 0.00 65 1014.7
20260904225321 63 44 1.0 8.0 0.00 0.00 0.00 66 1014.6
20260904224829 63 29 1.0 8.0 0.00 0.00 0.00 65 1014.6
20260904224558 63 41 5.0 8.0 0.00 0.00 0.00 66 1014.1
20260904224336 63 27 5.0 8.0 0.00 0.00 0.00 67 1014.5
20260904223851 63 63 1.0 7.0 0.00 0.00 0.00 68 1014.5
20260904223325 63 21 1.0 7.0 0.00 0.00 0.00 67 1014.4
20260904223132 63 62 4.0 7.0 0.00 0.00 0.00 69 1014.0
20260904222822 63 23 4.0 8.0 0.00 0.00 0.00 66 1014.3
20260904222339 63 76 3.0 8.0 0.00 0.00 0.00 65 1014.3
20260904221832 63 72 1.0 9.0 0.00 0.00 0.00 66 1014.3
20260904221600 63 43 2.0 9.0 0.00 0.00 0.00 66 1014.1
20260904221336 63 26 6.0 9.0 0.00 0.00 0.00 66 1014.4
20260904220838 63 22 4.0 8.0 0.00 0.00 0.00 67 1014.3
20260904220344 63 27 0.0 7.0 0.00 0.00 0.00 68 1014.4
20260904215829 63 49 1.0 7.0 0.00 0.00 0.00 67 1014.4
20260904215321 63 33 0.0 0.0 0.00 0.00 0.00 67 1014.3
20260904214831 63 21 0.0 0.0 0.00 0.00 0.00 66 1014.3
20260904214507 63 32 0.0 0.0 0.00 0.00 0.00 67 1014.1
20260904214329 63 34 0.0 0.0 0.00 0.00 0.00 65 1014.3
20260904213834 63 31 0.0 0.0 0.00 0.00 0.00 64 1014.4
20260904213336 63 4 0.0 0.0 0.00 0.00 0.00 64 1014.4
20260904213104 63 30 0.0 0.0 0.00 0.00 0.00 64 1014.1
20260904212819 63 73 0.0 0.0 0.00 0.00 0.00 64 1014.5
20260904212335 64 23 0.0 0.0 0.00 0.00 0.00 63 1014.4
20260904211845 64 325 0.0 0.0 0.00 0.00 0.00 61 1014.3
20260904211601 63 8 0.0 0.0 0.00 0.00 0.00 61 1014.1
20260904211337 64 23 0.0 0.0 0.00 0.00 0.00 62 1014.4
20260904210822 63 351 0.0 0.0 0.00 0.00 0.00 62 1014.3
20260904210325 64 26 0.0 0.0 0.00 0.00 0.00 63 1014.3
20260904210129 63 25 0.0 0.0 0.00 0.00 0.00 63 1014.0
20260904205820 64 25 0.0 0.0 0.00 0.04 0.00 64 1014.3
20260904204826 63 67 0.0 0.0 0.00 0.04 0.00 66 1014.2
20260904204604 62 77 0.0 0.0 0.00 0.01 0.00 66 1014.0
20260904204402 62 77 0.0 0.0 0.00 0.04 0.00 65 1014.3
20260904203837 63 25 0.0 0.0 0.00 0.04 0.00 66 1014.3
20260904203319 62 284 0.0 0.0 0.00 0.04 0.00 65 1014.3
20260904203106 62 270 0.0 0.0 0.00 0.01 0.00 65 1014.0
20260904202831 63 261 0.0 0.0 0.00 0.04 0.00 64 1014.3
20260904202326 63 274 0.0 0.0 0.00 0.04 0.00 64 1014.4
20260904201854 63 239 0.0 0.0 0.00 0.04 0.00 65 1014.4
20260904201603 62 239 0.0 0.0 0.00 0.01 0.00 68 1014.1
20260904201329 62 231 0.0 0.0 0.00 0.04 0.00 68 1014.3
20260904200822 61 250 0.0 0.0 0.00 0.04 0.00 68 1014.3
20260904200318 62 228 0.0 0.0 0.00 0.04 0.00 68 1014.4
20260904200106 61 212 0.0 0.0 0.00 0.01 0.00 69 1014.1